User: anonymous   Login
Location: Campillo
(40.8621°N, 4.2488°W)
Time: 01:35:01
(UTC+00:00)
Language:

Cosmos 2366 rocket - Orbit

View from above orbital plane
View from above orbital plane
View from above satellite
View from above satellite

Ground track
Ground track

The orbit data is extracted from the following two-line orbital elements,

1 25893U 99045B   21208.51128841  .00000074  00000-0  60140-4 0  9993
2 25893  82.9284 346.9274 0027880 214.3556 214.0156 13.76548125101203
Epoch (UTC): 27 July 2021 12:16:15
Eccentricity: 0.0027880
inclination: 82.9284°
perigee height: 955 km
apogee height: 996 km
right ascension of ascending node: 346.9274°
argument of perigee: 214.3556°
revolutions per day: 13.76548125
mean anomaly at epoch: 214.0156°
orbit number at epoch: 10120

The dashed part of the orbit path shows where the satellite is in the earth's shadow,  

DLR